Time,TemperatureF,DewpointF,PressureIn,WindDirection,WindDirectionDegrees,WindSpeedMPH,WindSpeedGustMPH,Humidity,HourlyPrecipIn,Conditions,Clouds,dailyrainin,SoftwareType,DateUTC
2013-11-04 00:02:00,46.9,23.9,29.96,SSE,168,14.9,14.9,40,0.00,,SKC,0.00,VWS V14.01,2013-11-04 06:02:00,
2013-11-04 00:07:00,46.8,23.7,29.96,SE,145,19.7,19.7,40,0.00,,SKC,0.00,VWS V14.01,2013-11-04 06:07:00,
2013-11-04 00:12:00,46.8,23.7,29.96,SSE,154,6.4,16.5,40,0.00,,SKC,0.00,VWS V14.01,2013-11-04 06:12:00,
2013-11-04 00:17:00,46.8,24.3,29.96,SE,137,23.8,23.8,41,0.00,,SKC,0.00,VWS V14.01,2013-11-04 06:17:00,
2013-11-04 00:22:00,46.8,24.3,29.96,SE,125,22.1,23.0,41,0.00,,SKC,0.00,VWS V14.01,2013-11-04 06:22:00,
2013-11-04 00:27:00,46.6,24.2,29.96,SE,126,10.5,13.7,41,0.00,,SKC,0.00,VWS V14.01,2013-11-04 06:27:00,
2013-11-04 00:32:00,46.6,24.2,29.96,SSE,154,14.9,14.9,41,0.00,,SKC,0.00,VWS V14.01,2013-11-04 06:32:00,
2013-11-04 00:37:00,46.6,24.2,29.96,South,178,7.2,8.9,41,0.00,,SKC,0.00,VWS V14.01,2013-11-04 06:37:00,
2013-11-04 00:42:00,46.6,24.2,29.96,ESE,112,13.7,13.7,41,0.00,,SKC,0.00,VWS V14.01,2013-11-04 06:42:00,
2013-11-04 00:47:00,46.6,24.2,29.96,SSE,154,18.9,18.9,41,0.00,,SKC,0.00,VWS V14.01,2013-11-04 06:47:00,
2013-11-04 00:52:00,46.8,24.3,29.96,South,177,19.7,19.7,41,0.00,,SKC,0.00,VWS V14.01,2013-11-04 06:52:00,
2013-11-04 00:58:00,46.9,24.5,29.96,SSE,167,9.7,17.3,41,0.00,,SKC,0.00,VWS V14.01,2013-11-04 06:58:00,
2013-11-04 01:03:00,46.9,24.5,29.93,SE,138,5.6,9.7,41,0.00,,SKC,0.00,VWS V14.01,2013-11-04 07:03:00,
2013-11-04 01:08:00,46.9,24.5,29.93,SSE,167,13.7,13.7,41,0.00,,SKC,0.00,VWS V14.01,2013-11-04 07:08:00,
2013-11-04 01:13:00,46.9,24.5,29.93,SSW,192,12.1,12.1,41,0.00,,SKC,0.00,VWS V14.01,2013-11-04 07:13:00,
2013-11-04 01:18:00,46.9,24.5,29.96,SE,135,18.9,18.9,41,0.00,,SKC,0.00,VWS V14.01,2013-11-04 07:18:00,
2013-11-04 01:23:00,46.9,24.5,29.96,SSE,159,12.1,12.1,41,0.00,,SKC,0.00,VWS V14.01,2013-11-04 07:23:00,
2013-11-04 01:28:00,46.9,24.5,29.96,West,269,6.4,6.4,41,0.00,,SKC,0.00,VWS V14.01,2013-11-04 07:28:00,
2013-11-04 01:33:00,46.9,25.1,29.96,SSE,160,0.0,5.6,42,0.00,,SKC,0.00,VWS V14.01,2013-11-04 07:33:00,
2013-11-04 01:38:00,46.9,25.1,29.96,East,99,10.5,10.5,42,0.00,,SKC,0.00,VWS V14.01,2013-11-04 07:38:00,
2013-11-04 01:43:00,46.9,25.1,29.93,ESE,112,9.7,14.5,42,0.00,,SKC,0.00,VWS V14.01,2013-11-04 07:43:00,
2013-11-04 01:48:00,46.9,25.1,29.93,SSE,160,4.8,10.5,42,0.00,,SKC,0.00,VWS V14.01,2013-11-04 07:48:00,
2013-11-04 01:53:00,46.9,25.1,29.93,ESE,102,9.7,10.5,42,0.00,,SKC,0.00,VWS V14.01,2013-11-04 07:53:00,
2013-11-04 01:59:00,46.8,24.9,29.93,ESE,117,6.4,7.2,42,0.00,,SKC,0.00,VWS V14.01,2013-11-04 07:59:00,
2013-11-04 02:04:00,46.8,25.5,29.93,SSE,156,17.3,18.9,43,0.00,,SKC,0.00,VWS V14.01,2013-11-04 08:04:00,
2013-11-04 02:09:00,46.6,26.4,29.93,SSE,166,5.6,11.3,45,0.00,,SKC,0.00,VWS V14.01,2013-11-04 08:09:00,
2013-11-04 02:14:00,46.4,26.8,29.93,South,178,15.7,15.7,46,0.00,,SKC,0.00,VWS V14.01,2013-11-04 08:14:00,
2013-11-04 02:19:00,46.4,26.8,29.93,East,99,9.7,11.3,46,0.00,,SKC,0.00,VWS V14.01,2013-11-04 08:19:00,
2013-11-04 02:24:00,46.2,27.1,29.93,SSW,199,13.7,14.5,47,0.00,,SKC,0.00,VWS V14.01,2013-11-04 08:24:00,
2013-11-04 02:29:00,46.0,27.5,29.93,SE,140,15.7,18.9,48,0.00,,SKC,0.00,VWS V14.01,2013-11-04 08:29:00,
2013-11-04 02:34:00,46.0,27.5,29.93,SE,138,11.3,11.3,48,0.00,,SKC,0.00,VWS V14.01,2013-11-04 08:34:00,
2013-11-04 02:39:00,45.9,27.3,29.93,SSE,151,5.6,9.7,48,0.00,,SKC,0.00,VWS V14.01,2013-11-04 08:39:00,
2013-11-04 02:44:00,45.9,27.8,29.93,South,178,7.2,8.9,49,0.00,,SKC,0.00,VWS V14.01,2013-11-04 08:44:00,
2013-11-04 02:49:00,45.7,27.6,29.93,SE,135,15.7,23.0,49,0.00,,SKC,0.00,VWS V14.01,2013-11-04 08:49:00,
2013-11-04 02:55:00,45.7,27.6,29.93,ESE,114,7.2,7.2,49,0.00,,SKC,0.00,VWS V14.01,2013-11-04 08:55:00,
2013-11-04 03:00:00,45.7,27.6,29.93,ESE,108,14.9,14.9,49,0.00,,SKC,0.00,VWS V14.01,2013-11-04 09:00:00,
2013-11-04 03:05:00,45.7,27.6,29.93,SSE,151,4.8,11.3,49,0.00,,SKC,0.00,VWS V14.01,2013-11-04 09:05:00,
2013-11-04 03:10:00,45.7,27.6,29.93,South,185,9.7,18.9,49,0.00,,SKC,0.00,VWS V14.01,2013-11-04 09:10:00,
2013-11-04 03:15:00,45.5,28.0,29.93,SE,129,7.2,8.9,50,0.00,,SKC,0.00,VWS V14.01,2013-11-04 09:15:00,
2013-11-04 03:20:00,45.7,28.1,29.93,SE,137,14.5,18.1,50,0.00,,SKC,0.00,VWS V14.01,2013-11-04 09:20:00,
2013-11-04 03:25:00,45.5,28.0,29.93,SSE,156,11.3,11.3,50,0.00,,SKC,0.00,VWS V14.01,2013-11-04 09:25:00,
2013-11-04 03:30:00,45.3,28.8,29.93,SSE,157,18.1,18.1,52,0.00,,SKC,0.00,VWS V14.01,2013-11-04 09:30:00,
2013-11-04 03:35:00,45.0,29.3,29.93,SE,141,5.6,14.5,54,0.00,,SKC,0.00,VWS V14.01,2013-11-04 09:35:00,
2013-11-04 03:40:00,44.6,29.9,29.93,ESE,122,21.3,21.3,56,0.00,,SKC,0.00,VWS V14.01,2013-11-04 09:40:00,
2013-11-04 03:46:00,44.4,30.6,29.93,SSE,148,7.2,7.2,58,0.00,,SKC,0.00,VWS V14.01,2013-11-04 09:46:00,
2013-11-04 03:51:00,44.4,30.6,29.93,East,88,4.8,9.7,58,0.00,,SKC,0.00,VWS V14.01,2013-11-04 09:51:00,
2013-11-04 03:56:00,44.2,30.4,29.93,SSE,165,9.7,11.3,58,0.00,,SKC,0.00,VWS V14.01,2013-11-04 09:56:00,
2013-11-04 04:01:00,44.2,30.8,29.93,SE,136,5.6,5.6,59,0.00,,SKC,0.00,VWS V14.01,2013-11-04 10:01:00,
2013-11-04 04:06:00,44.2,30.8,29.93,SSE,163,13.7,13.7,59,0.00,,SKC,0.00,VWS V14.01,2013-11-04 10:06:00,
2013-11-04 04:11:00,44.1,30.7,29.93,NNE,25,7.2,9.7,59,0.00,,SKC,0.00,VWS V14.01,2013-11-04 10:11:00,
2013-11-04 04:16:00,44.2,30.8,29.93,West,280,7.2,13.7,59,0.00,,SKC,0.00,VWS V14.01,2013-11-04 10:16:00,
2013-11-04 04:21:00,44.2,30.8,29.93,SSW,194,10.5,10.5,59,0.00,,SKC,0.00,VWS V14.01,2013-11-04 10:21:00,
2013-11-04 04:26:00,44.1,30.7,29.93,ESE,109,7.2,12.9,59,0.00,,SKC,0.00,VWS V14.01,2013-11-04 10:26:00,
2013-11-04 04:31:00,44.1,30.7,29.93,South,172,17.3,23.0,59,0.00,,SKC,0.00,VWS V14.01,2013-11-04 10:31:00,
2013-11-04 04:36:00,44.1,30.7,29.93,NNE,25,14.5,14.5,59,0.00,,SKC,0.00,VWS V14.01,2013-11-04 10:36:00,
2013-11-04 04:42:00,44.1,30.7,29.93,East,81,6.4,15.7,59,0.00,,SKC,0.00,VWS V14.01,2013-11-04 10:42:00,
2013-11-04 04:47:00,43.9,30.9,29.93,SSE,167,11.3,12.9,60,0.00,,SKC,0.00,VWS V14.01,2013-11-04 10:47:00,
2013-11-04 04:52:00,43.7,30.7,29.93,SSE,161,15.7,15.7,60,0.00,,SKC,0.00,VWS V14.01,2013-11-04 10:52:00,
2013-11-04 04:57:00,43.7,31.1,29.93,SSE,162,5.6,12.9,61,0.00,,SKC,0.00,VWS V14.01,2013-11-04 10:57:00,
2013-11-04 05:02:00,43.7,31.1,29.93,SE,124,4.8,4.8,61,0.00,,SKC,0.00,VWS V14.01,2013-11-04 11:02:00,
2013-11-04 05:07:00,43.9,31.3,29.93,ESE,117,6.4,15.7,61,0.00,,SKC,0.00,VWS V14.01,2013-11-04 11:07:00,
2013-11-04 05:12:00,44.1,31.9,29.93,ESE,120,5.6,7.2,62,0.00,,SKC,0.00,VWS V14.01,2013-11-04 11:12:00,
2013-11-04 05:14:00,43.9,31.7,29.91,SSE,155,7.2,10.5,62,0.00,,SKC,0.00,VWS V14.01,2013-11-04 11:14:00,
2013-11-04 05:19:00,43.9,31.7,29.91,South,179,0.0,10.5,62,0.00,,SKC,0.00,VWS V14.01,2013-11-04 11:19:00,
2013-11-04 05:24:00,43.7,32.0,29.91,SSE,163,11.3,11.3,63,0.00,,SKC,0.00,VWS V14.01,2013-11-04 11:24:00,
2013-11-04 05:25:00,43.7,32.0,29.91,South,190,9.7,15.7,63,0.00,,SKC,0.00,VWS V14.01,2013-11-04 11:25:00,
2013-11-04 05:31:00,43.7,32.3,29.91,SE,139,14.9,14.9,64,0.00,,SKC,0.00,VWS V14.01,2013-11-04 11:31:00,
2013-11-04 05:37:00,43.7,33.1,29.91,SE,143,15.7,15.7,66,0.00,,SKC,0.00,VWS V14.01,2013-11-04 11:37:00,
2013-11-04 05:42:00,43.5,33.3,29.91,East,99,7.2,18.9,67,0.00,,SKC,0.00,VWS V14.01,2013-11-04 11:42:00,
2013-11-04 05:47:00,43.5,33.7,29.91,SSW,196,11.3,14.5,68,0.00,,SKC,0.00,VWS V14.01,2013-11-04 11:47:00,
2013-11-04 05:52:00,43.5,33.3,29.91,ESE,110,16.5,16.5,67,0.00,,SKC,0.00,VWS V14.01,2013-11-04 11:52:00,
2013-11-04 05:57:00,43.5,33.3,29.91,South,175,7.2,8.9,67,0.00,,SKC,0.00,VWS V14.01,2013-11-04 11:57:00,
2013-11-04 06:03:00,43.5,33.3,29.91,ESE,122,9.7,9.7,67,0.00,,SKC,0.00,VWS V14.01,2013-11-04 12:03:00,
2013-11-04 06:08:00,43.5,32.9,29.91,SSE,164,0.0,4.8,66,0.00,,SKC,0.00,VWS V14.01,2013-11-04 12:08:00,
2013-11-04 06:13:00,43.7,32.7,29.91,ESE,103,8.9,15.7,65,0.00,,SKC,0.00,VWS V14.01,2013-11-04 12:13:00,
2013-11-04 06:18:00,43.7,32.3,29.91,South,179,5.6,13.7,64,0.00,,SKC,0.00,VWS V14.01,2013-11-04 12:18:00,
2013-11-04 06:23:00,43.9,32.5,29.91,East,85,7.2,8.9,64,0.00,,SKC,0.00,VWS V14.01,2013-11-04 12:23:00,
2013-11-04 06:28:00,44.1,32.3,29.91,ESE,120,11.3,14.5,63,0.00,,SKC,0.00,VWS V14.01,2013-11-04 12:28:00,
2013-11-04 06:34:00,44.1,32.3,29.91,SSE,168,6.4,7.2,63,0.00,,SKC,0.00,VWS V14.01,2013-11-04 12:34:00,
2013-11-04 06:39:00,44.1,31.9,29.91,SSE,159,5.6,6.4,62,0.00,,SKC,0.00,VWS V14.01,2013-11-04 12:39:00,
2013-11-04 06:44:00,44.1,31.9,29.91,West,281,9.7,10.5,62,0.00,,SKC,0.00,VWS V14.01,2013-11-04 12:44:00,
2013-11-04 06:49:00,44.1,31.9,29.91,NNE,32,15.7,15.7,62,0.00,,SKC,0.00,VWS V14.01,2013-11-04 12:49:00,
2013-11-04 06:54:00,44.2,31.7,29.91,South,174,5.6,15.7,61,0.00,,SKC,0.00,VWS V14.01,2013-11-04 12:54:00,
2013-11-04 06:59:00,44.2,32.1,29.91,SSE,157,15.7,15.7,62,0.00,,SKC,0.00,VWS V14.01,2013-11-04 12:59:00,
2013-11-04 07:04:00,44.4,32.2,29.91,SE,132,8.9,8.9,62,0.00,,SKC,0.00,VWS V14.01,2013-11-04 13:04:00,
2013-11-04 07:09:00,44.2,32.5,29.91,SSW,207,6.4,6.4,63,0.00,,SKC,0.00,VWS V14.01,2013-11-04 13:09:00,
2013-11-04 07:14:00,44.1,32.7,29.91,SE,136,5.6,10.5,64,0.00,,SKC,0.00,VWS V14.01,2013-11-04 13:14:00,
2013-11-04 07:19:00,43.9,33.3,29.91,SSE,154,15.7,15.7,66,0.00,,SKC,0.00,VWS V14.01,2013-11-04 13:19:00,
2013-11-04 07:24:00,43.5,34.0,29.91,SSW,198,6.4,8.9,69,0.00,,SKC,0.00,VWS V14.01,2013-11-04 13:24:00,
2013-11-04 07:29:00,43.3,34.6,29.91,SW,227,8.1,14.9,71,0.00,,SKC,0.00,VWS V14.01,2013-11-04 13:29:00,
2013-11-04 07:35:00,43.3,34.9,29.91,South,179,8.9,12.1,72,0.00,,SKC,0.00,VWS V14.01,2013-11-04 13:35:00,
2013-11-04 07:40:00,43.2,35.5,29.91,South,176,11.3,11.3,74,0.00,,SKC,0.00,VWS V14.01,2013-11-04 13:40:00,
2013-11-04 07:45:00,43.0,35.6,29.93,SSE,148,9.7,9.7,75,0.00,,SKC,0.00,VWS V14.01,2013-11-04 13:45:00,
2013-11-04 07:50:00,43.0,36.0,29.93,South,184,12.9,12.9,76,0.00,,SKC,0.00,VWS V14.01,2013-11-04 13:50:00,
2013-11-04 07:55:00,42.8,36.1,29.93,SE,135,7.2,14.9,77,0.00,,SKC,0.00,VWS V14.01,2013-11-04 13:55:00,
2013-11-04 08:00:00,42.8,36.4,29.93,SE,139,18.1,18.1,78,0.00,,SKC,0.00,VWS V14.01,2013-11-04 14:00:00,
2013-11-04 08:05:00,43.0,36.9,29.93,SE,126,7.2,9.7,79,0.04,,SKC,0.04,VWS V14.01,2013-11-04 14:05:00,
2013-11-04 08:10:00,43.0,37.2,29.93,ENE,73,9.7,18.1,80,0.04,,SKC,0.04,VWS V14.01,2013-11-04 14:10:00,
2013-11-04 08:15:00,43.0,37.2,29.93,SE,136,23.0,23.0,80,0.04,,SKC,0.04,VWS V14.01,2013-11-04 14:15:00,
2013-11-04 08:21:00,43.0,37.6,29.93,SSE,162,13.7,13.7,81,0.04,,SKC,0.04,VWS V14.01,2013-11-04 14:21:00,
2013-11-04 08:26:00,43.0,37.6,29.93,SE,138,5.6,8.1,81,0.04,,SKC,0.04,VWS V14.01,2013-11-04 14:26:00,
2013-11-04 08:31:00,43.0,37.9,29.93,SSE,159,14.5,14.5,82,0.04,,SKC,0.04,VWS V14.01,2013-11-04 14:31:00,
2013-11-04 08:36:00,43.0,37.9,29.93,South,173,4.8,9.7,82,0.04,,SKC,0.04,VWS V14.01,2013-11-04 14:36:00,
2013-11-04 08:41:00,43.2,38.4,29.93,South,172,6.4,9.7,83,0.04,,SKC,0.04,VWS V14.01,2013-11-04 14:41:00,
2013-11-04 08:46:00,43.3,38.5,29.93,SSE,148,8.9,8.9,83,0.04,,SKC,0.04,VWS V14.01,2013-11-04 14:46:00,
2013-11-04 08:51:00,43.5,38.7,29.93,SE,130,7.2,14.9,83,0.04,,SKC,0.04,VWS V14.01,2013-11-04 14:51:00,
2013-11-04 08:56:00,43.5,38.7,29.93,SE,124,12.9,15.7,83,0.04,,SKC,0.04,VWS V14.01,2013-11-04 14:56:00,
2013-11-04 09:01:00,43.7,38.9,29.93,SE,127,8.9,8.9,83,0.04,,SKC,0.00,VWS V14.01,2013-11-04 15:01:00,
2013-11-04 09:07:00,43.9,38.8,29.93,SE,135,7.2,11.3,82,0.00,,SKC,0.04,VWS V14.01,2013-11-04 15:07:00,
2013-11-04 09:12:00,44.1,38.9,29.93,SSW,196,10.5,10.5,82,0.00,,SKC,0.04,VWS V14.01,2013-11-04 15:12:00,
2013-11-04 09:17:00,44.2,39.1,29.93,SSE,160,10.5,10.5,82,0.00,,SKC,0.04,VWS V14.01,2013-11-04 15:17:00,
2013-11-04 09:22:00,44.2,38.8,29.93,SE,139,7.2,11.3,81,0.00,,SKC,0.04,VWS V14.01,2013-11-04 15:22:00,
2013-11-04 09:27:00,44.2,38.8,29.93,SSE,149,10.5,10.5,81,0.00,,SKC,0.04,VWS V14.01,2013-11-04 15:27:00,
2013-11-04 09:32:00,44.2,38.8,29.93,SSW,201,11.3,11.3,81,0.00,,SKC,0.04,VWS V14.01,2013-11-04 15:32:00,
2013-11-04 09:37:00,44.1,38.6,29.93,South,169,11.3,14.9,81,0.00,,SKC,0.04,VWS V14.01,2013-11-04 15:37:00,
2013-11-04 09:42:00,44.4,39.3,29.93,SSE,164,10.5,10.5,82,0.00,,SKC,0.04,VWS V14.01,2013-11-04 15:42:00,
2013-11-04 09:47:00,44.4,39.3,29.93,SE,130,7.2,10.5,82,0.00,,SKC,0.04,VWS V14.01,2013-11-04 15:47:00,
2013-11-04 09:52:00,44.6,39.1,29.93,SSE,151,13.7,14.5,81,0.00,,SKC,0.04,VWS V14.01,2013-11-04 15:52:00,
2013-11-04 09:57:00,44.8,39.3,29.93,SSE,158,9.7,11.3,81,0.00,,SKC,0.04,VWS V14.01,2013-11-04 15:57:00,
2013-11-04 10:03:00,44.8,39.0,29.93,SSW,192,10.5,10.5,80,0.00,,SKC,0.04,VWS V14.01,2013-11-04 16:03:00,
2013-11-04 10:08:00,44.8,39.0,29.93,SSE,160,9.7,14.5,80,0.00,,SKC,0.04,VWS V14.01,2013-11-04 16:08:00,
2013-11-04 10:13:00,45.1,39.7,29.93,East,100,11.3,11.3,81,0.00,,SKC,0.04,VWS V14.01,2013-11-04 16:13:00,
2013-11-04 10:18:00,45.0,39.2,29.93,SE,130,12.9,18.1,80,0.00,,SKC,0.04,VWS V14.01,2013-11-04 16:18:00,
2013-11-04 10:23:00,45.0,39.2,29.93,South,182,11.3,15.7,80,0.00,,SKC,0.04,VWS V14.01,2013-11-04 16:23:00,
2013-11-04 10:28:00,45.1,39.3,29.93,SSE,151,7.2,14.9,80,0.00,,SKC,0.04,VWS V14.01,2013-11-04 16:28:00,
2013-11-04 10:33:00,45.1,39.3,29.93,ESE,122,7.2,19.7,80,0.00,,SKC,0.04,VWS V14.01,2013-11-04 16:33:00,
2013-11-04 10:38:00,45.1,39.3,29.93,SSE,163,8.9,9.7,80,0.00,,SKC,0.04,VWS V14.01,2013-11-04 16:38:00,
2013-11-04 10:43:00,45.1,39.7,29.93,SSW,205,9.7,13.7,81,0.00,,SKC,0.04,VWS V14.01,2013-11-04 16:43:00,
2013-11-04 10:49:00,45.3,39.8,29.93,WSW,245,5.6,8.9,81,0.00,,SKC,0.04,VWS V14.01,2013-11-04 16:49:00,
2013-11-04 10:54:00,45.5,40.3,29.93,South,176,11.3,11.3,82,0.00,,SKC,0.04,VWS V14.01,2013-11-04 16:54:00,
2013-11-04 10:59:00,45.5,40.0,29.93,SE,137,15.7,15.7,81,0.00,,SKC,0.04,VWS V14.01,2013-11-04 16:59:00,
2013-11-04 11:04:00,45.7,40.5,29.93,South,191,7.2,10.5,82,0.00,,SKC,0.04,VWS V14.01,2013-11-04 17:04:00,
2013-11-04 11:09:00,45.7,40.5,29.93,SSW,192,11.3,11.3,82,0.00,,SKC,0.04,VWS V14.01,2013-11-04 17:09:00,
2013-11-04 11:14:00,45.9,40.4,29.93,South,177,10.5,11.3,81,0.00,,SKC,0.04,VWS V14.01,2013-11-04 17:14:00,
2013-11-04 11:19:00,45.9,40.4,29.93,SSE,165,17.3,17.3,81,0.00,,SKC,0.04,VWS V14.01,2013-11-04 17:19:00,
2013-11-04 11:24:00,45.9,40.4,29.93,SW,219,5.6,14.5,81,0.00,,SKC,0.04,VWS V14.01,2013-11-04 17:24:00,
2013-11-04 11:29:00,45.9,40.4,29.93,South,184,5.6,7.2,81,0.00,,SKC,0.04,VWS V14.01,2013-11-04 17:29:00,
2013-11-04 11:35:00,46.0,40.5,29.93,SSE,165,11.3,11.3,81,0.00,,SKC,0.04,VWS V14.01,2013-11-04 17:35:00,
2013-11-04 11:40:00,46.0,40.9,29.93,SE,145,5.6,9.7,82,0.00,,SKC,0.04,VWS V14.01,2013-11-04 17:40:00,
2013-11-04 11:46:00,45.9,40.7,29.93,SSE,165,6.4,7.2,82,0.00,,SKC,0.04,VWS V14.01,2013-11-04 17:46:00,
2013-11-04 11:51:00,45.9,41.0,29.93,South,172,5.6,14.5,83,0.00,,SKC,0.04,VWS V14.01,2013-11-04 17:51:00,
2013-11-04 11:56:00,46.0,41.2,29.93,SSW,198,6.4,10.5,83,0.00,,SKC,0.04,VWS V14.01,2013-11-04 17:56:00,
2013-11-04 12:01:00,46.0,41.2,29.93,South,185,8.9,10.5,83,0.00,,SKC,0.04,VWS V14.01,2013-11-04 18:01:00,
2013-11-04 12:06:00,46.0,41.2,29.93,SSW,197,5.6,5.6,83,0.00,,SKC,0.04,VWS V14.01,2013-11-04 18:06:00,
2013-11-04 12:11:00,46.0,41.2,29.93,SE,138,0.0,0.0,83,0.00,,SKC,0.04,VWS V14.01,2013-11-04 18:11:00,
2013-11-04 12:16:00,46.2,41.3,29.93,SSW,200,5.6,6.4,83,0.00,,SKC,0.04,VWS V14.01,2013-11-04 18:16:00,
2013-11-04 12:22:00,46.2,41.3,29.93,SSW,204,17.3,17.3,83,0.00,,SKC,0.04,VWS V14.01,2013-11-04 18:22:00,
2013-11-04 12:27:00,46.2,41.3,29.93,WSW,252,15.7,16.5,83,0.00,,SKC,0.04,VWS V14.01,2013-11-04 18:27:00,
2013-11-04 12:32:00,46.2,41.3,29.93,SSW,195,7.2,8.9,83,0.00,,SKC,0.04,VWS V14.01,2013-11-04 18:32:00,
2013-11-04 12:37:00,46.2,41.3,29.93,SSW,212,9.7,9.7,83,0.00,,SKC,0.04,VWS V14.01,2013-11-04 18:37:00,
2013-11-04 12:42:00,46.4,41.5,29.93,South,185,6.4,11.3,83,0.00,,SKC,0.04,VWS V14.01,2013-11-04 18:42:00,
2013-11-04 12:47:00,46.4,41.5,29.93,SSE,150,7.2,7.2,83,0.00,,SKC,0.04,VWS V14.01,2013-11-04 18:47:00,
2013-11-04 12:52:00,46.4,41.5,29.93,South,177,7.2,7.2,83,0.00,,SKC,0.04,VWS V14.01,2013-11-04 18:52:00,
2013-11-04 12:58:00,46.4,41.5,29.93,SSE,158,7.2,10.5,83,0.00,,SKC,0.04,VWS V14.01,2013-11-04 18:58:00,
2013-11-04 13:03:00,46.4,41.8,29.93,South,183,5.6,10.5,84,0.00,,SKC,0.00,VWS V14.01,2013-11-04 19:03:00,
2013-11-04 13:08:00,46.6,42.0,29.93,SSW,195,14.5,14.5,84,0.00,,SKC,0.04,VWS V14.01,2013-11-04 19:08:00,
2013-11-04 13:13:00,46.6,42.0,29.93,SSE,167,0.0,4.8,84,0.00,,SKC,0.04,VWS V14.01,2013-11-04 19:13:00,
2013-11-04 13:18:00,46.8,42.5,29.93,SSW,199,10.5,10.5,85,0.00,,SKC,0.04,VWS V14.01,2013-11-04 19:18:00,
2013-11-04 13:23:00,47.1,42.8,29.93,South,184,4.8,6.4,85,0.00,,SKC,0.04,VWS V14.01,2013-11-04 19:23:00,
2013-11-04 13:28:00,47.1,42.8,29.93,SSE,163,11.3,11.3,85,0.00,,SKC,0.04,VWS V14.01,2013-11-04 19:28:00,
2013-11-04 13:33:00,47.3,43.0,29.93,South,182,5.6,11.3,85,0.00,,SKC,0.04,VWS V14.01,2013-11-04 19:33:00,
2013-11-04 13:38:00,47.3,43.0,29.93,South,191,7.2,13.7,85,0.00,,SKC,0.04,VWS V14.01,2013-11-04 19:38:00,
2013-11-04 13:43:00,47.5,43.2,29.93,SE,142,7.2,9.7,85,0.00,,SKC,0.04,VWS V14.01,2013-11-04 19:43:00,
2013-11-04 13:48:00,47.7,43.4,29.93,SSW,194,8.9,14.5,85,0.00,,SKC,0.04,VWS V14.01,2013-11-04 19:48:00,
2013-11-04 13:54:00,47.8,43.2,29.93,South,169,11.3,13.7,84,0.00,,SKC,0.04,VWS V14.01,2013-11-04 19:54:00,
2013-11-04 13:59:00,48.0,43.4,29.93,South,179,4.0,14.9,84,0.00,,SKC,0.04,VWS V14.01,2013-11-04 19:59:00,
2013-11-04 14:04:00,48.0,43.1,29.93,SSE,164,5.6,7.2,83,0.00,,SKC,0.04,VWS V14.01,2013-11-04 20:04:00,
2013-11-04 14:09:00,48.0,43.1,29.93,South,184,8.9,11.3,83,0.00,,SKC,0.04,VWS V14.01,2013-11-04 20:09:00,
2013-11-04 14:15:00,48.2,43.0,29.96,South,176,10.5,10.5,82,0.00,,SKC,0.04,VWS V14.01,2013-11-04 20:15:00,
2013-11-04 14:20:00,48.2,43.0,29.96,WSW,248,7.2,8.9,82,0.00,,SKC,0.04,VWS V14.01,2013-11-04 20:20:00,
2013-11-04 14:25:00,48.4,42.8,29.96,SSW,193,4.0,6.4,81,0.00,,SKC,0.04,VWS V14.01,2013-11-04 20:25:00,
2013-11-04 14:30:00,48.4,42.8,29.96,SW,228,7.2,9.7,81,0.00,,SKC,0.04,VWS V14.01,2013-11-04 20:30:00,
2013-11-04 14:35:00,48.4,42.5,29.96,SSE,152,7.2,7.2,80,0.00,,SKC,0.04,VWS V14.01,2013-11-04 20:35:00,
2013-11-04 14:40:00,48.4,42.5,29.96,South,170,5.6,5.6,80,0.00,,SKC,0.04,VWS V14.01,2013-11-04 20:40:00,
2013-11-04 14:45:00,48.4,42.5,29.96,SSW,208,6.4,6.4,80,0.00,,SKC,0.04,VWS V14.01,2013-11-04 20:45:00,
2013-11-04 14:51:00,48.4,42.2,29.96,SW,232,4.8,6.4,79,0.00,,SKC,0.04,VWS V14.01,2013-11-04 20:51:00,
2013-11-04 14:56:00,48.6,42.3,29.96,SSW,198,4.8,4.8,79,0.00,,SKC,0.04,VWS V14.01,2013-11-04 20:56:00,
2013-11-04 15:01:00,48.6,42.3,29.96,South,182,5.6,9.7,79,0.00,,SKC,0.04,VWS V14.01,2013-11-04 21:01:00,
2013-11-04 15:06:00,48.6,42.3,29.96,SSW,205,4.8,5.6,79,0.00,,SKC,0.04,VWS V14.01,2013-11-04 21:06:00,
2013-11-04 15:11:00,48.6,42.3,29.96,SSW,192,7.2,7.2,79,0.00,,SKC,0.04,VWS V14.01,2013-11-04 21:11:00,
2013-11-04 15:17:00,48.6,42.3,29.96,South,183,4.0,5.6,79,0.00,,SKC,0.04,VWS V14.01,2013-11-04 21:17:00,
2013-11-04 15:22:00,48.6,42.3,29.96,SW,216,4.8,9.7,79,0.00,,SKC,0.04,VWS V14.01,2013-11-04 21:22:00,
2013-11-04 15:27:00,48.6,42.3,29.96,SSE,165,10.5,11.3,79,0.00,,SKC,0.04,VWS V14.01,2013-11-04 21:27:00,
2013-11-04 15:32:00,48.2,41.3,29.99,WNW,299,4.8,5.6,77,0.00,,SKC,0.04,VWS V14.01,2013-11-04 21:32:00,
2013-11-04 15:37:00,47.7,40.1,29.99,WNW,284,4.0,7.2,75,0.00,,SKC,0.04,VWS V14.01,2013-11-04 21:37:00,
2013-11-04 15:42:00,47.1,38.9,29.99,NW,305,7.2,8.1,73,0.00,,SKC,0.04,VWS V14.01,2013-11-04 21:42:00,
2013-11-04 15:47:00,46.8,38.2,29.99,WSW,245,5.6,6.4,72,0.00,,SKC,0.04,VWS V14.01,2013-11-04 21:47:00,
2013-11-04 15:53:00,46.6,38.0,29.99,West,259,0.0,0.0,72,0.00,,SKC,0.04,VWS V14.01,2013-11-04 21:53:00,
2013-11-04 15:58:00,46.4,37.5,29.99,WNW,301,6.4,7.2,71,0.00,,SKC,0.04,VWS V14.01,2013-11-04 21:58:00,
2013-11-04 16:03:00,46.4,37.2,30.02,NNW,345,4.0,4.0,70,0.00,,SKC,0.04,VWS V14.01,2013-11-04 22:03:00,
2013-11-04 16:08:00,46.2,36.3,30.02,WNW,286,7.2,7.2,68,0.00,,SKC,0.04,VWS V14.01,2013-11-04 22:08:00,
2013-11-04 16:13:00,46.0,35.7,30.02,West,275,7.2,7.2,67,0.00,,SKC,0.04,VWS V14.01,2013-11-04 22:13:00,
2013-11-04 16:18:00,46.0,35.3,30.02,WSW,250,0.0,0.0,66,0.00,,SKC,0.04,VWS V14.01,2013-11-04 22:18:00,
2013-11-04 16:24:00,46.0,35.3,30.02,WSW,253,0.0,0.0,66,0.00,,SKC,0.04,VWS V14.01,2013-11-04 22:24:00,
2013-11-04 16:29:00,45.9,35.2,30.02,WNW,290,0.0,0.0,66,0.00,,SKC,0.04,VWS V14.01,2013-11-04 22:29:00,
2013-11-04 16:34:00,46.0,35.3,30.02,WNW,290,0.0,0.0,66,0.00,,SKC,0.04,VWS V14.01,2013-11-04 22:34:00,
2013-11-04 16:39:00,45.9,35.2,30.02,WNW,290,0.0,0.0,66,0.00,,SKC,0.04,VWS V14.01,2013-11-04 22:39:00,
2013-11-04 16:44:00,45.3,34.3,30.02,WNW,290,0.0,0.0,65,0.00,,SKC,0.04,VWS V14.01,2013-11-04 22:44:00,
2013-11-04 16:49:00,44.8,33.8,30.02,WNW,290,0.0,0.0,65,0.00,,SKC,0.04,VWS V14.01,2013-11-04 22:49:00,
2013-11-04 16:54:00,44.2,33.6,30.02,WNW,290,0.0,0.0,66,0.00,,SKC,0.04,VWS V14.01,2013-11-04 22:54:00,
2013-11-04 17:00:00,43.5,32.9,30.02,WNW,290,0.0,0.0,66,0.00,,SKC,0.04,VWS V14.01,2013-11-04 23:00:00,
2013-11-04 17:05:00,43.0,32.8,30.02,WNW,290,0.0,0.0,67,0.00,,SKC,0.04,VWS V14.01,2013-11-04 23:05:00,
2013-11-04 17:10:00,42.8,34.1,30.02,WNW,290,0.0,0.0,71,0.00,,SKC,0.04,VWS V14.01,2013-11-04 23:10:00,
2013-11-04 17:15:00,42.3,33.9,30.02,WNW,290,0.0,0.0,72,0.00,,SKC,0.04,VWS V14.01,2013-11-04 23:15:00,
2013-11-04 17:20:00,41.7,33.4,30.02,WNW,290,0.0,0.0,72,0.00,,SKC,0.04,VWS V14.01,2013-11-04 23:20:00,
2013-11-04 17:25:00,41.2,32.8,30.02,WNW,290,0.0,0.0,72,0.00,,SKC,0.04,VWS V14.01,2013-11-04 23:25:00,
2013-11-04 17:31:00,40.8,33.5,30.02,WNW,290,0.0,0.0,75,0.00,,SKC,0.04,VWS V14.01,2013-11-04 23:31:00,
2013-11-04 17:36:00,40.3,32.7,30.02,WNW,290,0.0,0.0,74,0.00,,SKC,0.04,VWS V14.01,2013-11-04 23:36:00,
2013-11-04 17:41:00,39.7,32.5,30.02,WNW,290,0.0,0.0,75,0.00,,SKC,0.04,VWS V14.01,2013-11-04 23:41:00,
2013-11-04 17:46:00,39.6,32.3,30.05,WNW,290,0.0,0.0,75,0.00,,SKC,0.04,VWS V14.01,2013-11-04 23:46:00,
2013-11-04 17:51:00,39.2,32.0,30.05,WNW,290,0.0,0.0,75,0.00,,SKC,0.04,VWS V14.01,2013-11-04 23:51:00,
2013-11-04 17:56:00,39.0,32.1,30.05,WNW,290,0.0,0.0,76,0.00,,SKC,0.04,VWS V14.01,2013-11-04 23:56:00,
2013-11-04 18:01:00,38.8,31.9,30.05,WNW,290,0.0,0.0,76,0.00,,SKC,0.04,VWS V14.01,2013-11-05 00:01:00,
2013-11-04 18:07:00,38.7,31.8,30.05,WNW,290,0.0,0.0,76,0.00,,SKC,0.04,VWS V14.01,2013-11-05 00:07:00,
2013-11-04 18:12:00,38.3,31.7,30.05,WNW,290,0.0,0.0,77,0.00,,SKC,0.04,VWS V14.01,2013-11-05 00:12:00,
2013-11-04 18:17:00,38.3,31.7,30.05,WNW,290,0.0,0.0,77,0.00,,SKC,0.04,VWS V14.01,2013-11-05 00:17:00,
2013-11-04 18:22:00,38.3,32.4,30.05,WNW,290,0.0,0.0,79,0.00,,SKC,0.04,VWS V14.01,2013-11-05 00:22:00,
2013-11-04 18:27:00,38.3,32.7,30.05,WNW,290,0.0,0.0,80,0.00,,SKC,0.04,VWS V14.01,2013-11-05 00:27:00,
2013-11-04 18:32:00,37.9,32.3,30.05,WNW,290,0.0,0.0,80,0.00,,SKC,0.04,VWS V14.01,2013-11-05 00:32:00,
2013-11-04 18:37:00,37.8,32.2,30.05,WNW,290,0.0,0.0,80,0.00,,SKC,0.04,VWS V14.01,2013-11-05 00:37:00,
2013-11-04 18:43:00,37.6,32.0,30.05,WNW,290,0.0,0.0,80,0.00,,SKC,0.04,VWS V14.01,2013-11-05 00:43:00,
2013-11-04 18:48:00,37.2,31.9,30.08,WNW,290,0.0,0.0,81,0.00,,SKC,0.04,VWS V14.01,2013-11-05 00:48:00,
2013-11-04 18:53:00,36.9,31.3,30.08,WNW,290,0.0,0.0,80,0.00,,SKC,0.04,VWS V14.01,2013-11-05 00:53:00,
2013-11-04 18:58:00,36.7,31.1,30.08,WNW,290,0.0,0.0,80,0.00,,SKC,0.04,VWS V14.01,2013-11-05 00:58:00,
2013-11-04 19:03:00,36.7,31.4,30.08,WNW,290,0.0,0.0,81,0.00,,SKC,0.04,VWS V14.01,2013-11-05 01:03:00,
2013-11-04 19:08:00,36.3,31.1,30.08,WNW,290,0.0,0.0,81,0.00,,SKC,0.04,VWS V14.01,2013-11-05 01:08:00,
2013-11-04 19:13:00,36.1,30.9,30.08,WNW,290,0.0,0.0,81,0.00,,SKC,0.04,VWS V14.01,2013-11-05 01:13:00,
2013-11-04 19:19:00,36.0,30.7,30.08,WNW,290,0.0,0.0,81,0.00,,SKC,0.04,VWS V14.01,2013-11-05 01:19:00,
2013-11-04 19:24:00,35.8,30.5,30.08,WNW,290,0.0,0.0,81,0.00,,SKC,0.04,VWS V14.01,2013-11-05 01:24:00,
2013-11-04 19:29:00,35.8,30.5,30.11,WNW,290,0.0,0.0,81,0.00,,SKC,0.04,VWS V14.01,2013-11-05 01:29:00,
2013-11-04 19:34:00,35.6,30.4,30.11,WNW,290,0.0,0.0,81,0.00,,SKC,0.04,VWS V14.01,2013-11-05 01:34:00,
2013-11-04 19:39:00,35.6,30.4,30.11,WNW,290,0.0,0.0,81,0.00,,SKC,0.04,VWS V14.01,2013-11-05 01:39:00,
2013-11-04 19:44:00,35.4,30.5,30.11,WNW,290,0.0,0.0,82,0.00,,SKC,0.04,VWS V14.01,2013-11-05 01:44:00,
2013-11-04 19:49:00,35.2,30.3,30.11,WNW,290,0.0,0.0,82,0.00,,SKC,0.04,VWS V14.01,2013-11-05 01:49:00,
2013-11-04 19:55:00,35.1,30.1,30.11,WNW,290,0.0,0.0,82,0.00,,SKC,0.04,VWS V14.01,2013-11-05 01:55:00,
2013-11-04 20:00:00,35.1,30.1,30.11,WNW,290,0.0,0.0,82,0.00,,SKC,0.04,VWS V14.01,2013-11-05 02:00:00,
2013-11-04 20:05:00,35.1,30.1,30.11,WNW,290,0.0,0.0,82,0.00,,SKC,0.04,VWS V14.01,2013-11-05 02:05:00,
2013-11-04 20:10:00,34.7,29.8,30.11,WNW,290,0.0,0.0,82,0.00,,SKC,0.04,VWS V14.01,2013-11-05 02:10:00,
2013-11-04 20:15:00,34.3,29.4,30.11,WNW,290,0.0,0.0,82,0.00,,SKC,0.04,VWS V14.01,2013-11-05 02:15:00,
2013-11-04 20:20:00,34.3,29.4,30.11,WNW,290,0.0,0.0,82,0.00,,SKC,0.04,VWS V14.01,2013-11-05 02:20:00,
2013-11-04 20:26:00,34.0,29.1,30.11,WNW,290,0.0,0.0,82,0.00,,SKC,0.04,VWS V14.01,2013-11-05 02:26:00,
2013-11-04 20:31:00,33.8,28.9,30.11,WNW,290,0.0,0.0,82,0.00,,SKC,0.04,VWS V14.01,2013-11-05 02:31:00,
2013-11-04 20:36:00,34.0,29.4,30.11,WNW,290,0.0,0.0,83,0.00,,SKC,0.04,VWS V14.01,2013-11-05 02:36:00,
2013-11-04 20:41:00,33.6,29.0,30.11,WNW,290,0.0,0.0,83,0.00,,SKC,0.04,VWS V14.01,2013-11-05 02:41:00,
2013-11-04 20:46:00,33.6,29.0,30.11,WNW,290,0.0,0.0,83,0.00,,SKC,0.04,VWS V14.01,2013-11-05 02:46:00,
2013-11-04 20:51:00,33.6,29.0,30.11,WNW,290,0.0,0.0,83,0.00,,SKC,0.04,VWS V14.01,2013-11-05 02:51:00,
2013-11-04 20:56:00,33.6,29.0,30.11,WNW,290,0.0,0.0,83,0.00,,SKC,0.04,VWS V14.01,2013-11-05 02:56:00,
2013-11-04 21:02:00,33.4,29.1,30.14,WNW,289,0.0,0.0,84,0.00,,SKC,0.04,VWS V14.01,2013-11-05 03:02:00,
2013-11-04 21:07:00,33.3,28.7,30.14,WNW,290,0.0,0.0,83,0.00,,SKC,0.04,VWS V14.01,2013-11-05 03:07:00,
2013-11-04 21:12:00,33.3,29.0,30.14,WNW,290,0.0,0.0,84,0.00,,SKC,0.04,VWS V14.01,2013-11-05 03:12:00,
2013-11-04 21:17:00,33.1,28.8,30.14,WNW,290,0.0,0.0,84,0.00,,SKC,0.04,VWS V14.01,2013-11-05 03:17:00,
2013-11-04 21:22:00,33.1,28.8,30.14,WNW,288,0.0,0.0,84,0.00,,SKC,0.04,VWS V14.01,2013-11-05 03:22:00,
2013-11-04 21:27:00,32.7,28.4,30.14,WNW,290,0.0,0.0,84,0.00,,SKC,0.04,VWS V14.01,2013-11-05 03:27:00,
2013-11-04 21:32:00,32.7,28.4,30.14,WNW,290,0.0,0.0,84,0.00,,SKC,0.04,VWS V14.01,2013-11-05 03:32:00,
2013-11-04 21:38:00,32.5,28.2,30.14,WNW,290,0.0,0.0,84,0.00,,SKC,0.04,VWS V14.01,2013-11-05 03:38:00,
2013-11-04 21:43:00,32.5,28.2,30.14,WNW,290,0.0,0.0,84,0.00,,SKC,0.04,VWS V14.01,2013-11-05 03:43:00,
2013-11-04 21:48:00,32.5,28.2,30.14,WNW,290,0.0,0.0,84,0.00,,SKC,0.04,VWS V14.01,2013-11-05 03:48:00,
2013-11-04 21:53:00,32.2,27.9,30.14,WNW,290,0.0,0.0,84,0.00,,SKC,0.04,VWS V14.01,2013-11-05 03:53:00,
2013-11-04 21:58:00,32.0,27.7,30.14,WNW,290,0.0,0.0,84,0.00,,SKC,0.04,VWS V14.01,2013-11-05 03:58:00,
2013-11-04 22:03:00,32.0,27.7,30.14,WNW,290,0.0,0.0,84,0.00,,SKC,0.04,VWS V14.01,2013-11-05 04:03:00,
2013-11-04 22:09:00,31.8,27.5,30.14,WNW,290,0.0,0.0,84,0.00,,SKC,0.04,VWS V14.01,2013-11-05 04:09:00,
2013-11-04 22:14:00,31.6,27.4,30.14,WNW,290,0.0,0.0,84,0.00,,SKC,0.04,VWS V14.01,2013-11-05 04:14:00,
2013-11-04 22:19:00,31.6,27.4,30.14,WNW,290,0.0,0.0,84,0.00,,SKC,0.04,VWS V14.01,2013-11-05 04:19:00,
2013-11-04 22:24:00,31.6,27.7,30.14,WNW,290,0.0,0.0,85,0.00,,SKC,0.04,VWS V14.01,2013-11-05 04:24:00,
2013-11-04 22:29:00,31.5,27.5,30.17,WNW,290,0.0,0.0,85,0.00,,SKC,0.04,VWS V14.01,2013-11-05 04:29:00,
2013-11-04 22:34:00,31.5,27.5,30.17,WNW,290,0.0,0.0,85,0.00,,SKC,0.04,VWS V14.01,2013-11-05 04:34:00,
2013-11-04 22:39:00,31.3,27.3,30.17,WNW,290,0.0,0.0,85,0.00,,SKC,0.04,VWS V14.01,2013-11-05 04:39:00,
2013-11-04 22:44:00,31.3,27.3,30.17,WNW,290,0.0,0.0,85,0.00,,SKC,0.04,VWS V14.01,2013-11-05 04:44:00,
2013-11-04 22:49:00,31.3,27.3,30.17,WNW,290,0.0,0.0,85,0.00,,SKC,0.04,VWS V14.01,2013-11-05 04:49:00,
2013-11-04 22:55:00,31.5,27.5,30.17,WNW,290,0.0,0.0,85,0.00,,SKC,0.04,VWS V14.01,2013-11-05 04:55:00,
2013-11-04 23:00:00,31.5,27.5,30.17,WNW,290,0.0,0.0,85,0.00,,SKC,0.04,VWS V14.01,2013-11-05 05:00:00,
2013-11-04 23:01:00,31.5,27.5,30.17,WNW,290,0.0,0.0,85,0.00,,SKC,0.04,VWS V14.01,2013-11-05 05:01:00,
2013-11-04 23:02:00,31.3,27.3,30.17,WNW,290,0.0,0.0,85,0.00,,SKC,0.04,VWS V14.01,2013-11-05 05:02:00,
2013-11-04 23:05:00,31.1,27.1,30.17,WNW,290,0.0,0.0,85,0.00,,SKC,0.04,VWS V14.01,2013-11-05 05:05:00,
2013-11-04 23:06:00,31.1,27.1,30.17,WNW,290,0.0,0.0,85,0.00,,SKC,0.04,VWS V14.01,2013-11-05 05:06:00,
2013-11-04 23:08:00,30.9,27.0,30.17,WNW,290,0.0,0.0,85,0.00,,SKC,0.04,VWS V14.01,2013-11-05 05:08:00,
2013-11-04 23:09:00,30.7,26.8,30.17,WNW,290,0.0,0.0,85,0.00,,SKC,0.04,VWS V14.01,2013-11-05 05:09:00,
2013-11-04 23:14:00,30.4,26.4,30.17,WNW,290,0.0,0.0,85,0.00,,SKC,0.04,VWS V14.01,2013-11-05 05:14:00,
2013-11-04 23:19:00,30.7,26.8,30.17,WNW,290,0.0,0.0,85,0.00,,SKC,0.04,VWS V14.01,2013-11-05 05:19:00,
2013-11-04 23:25:00,30.6,26.9,30.17,WNW,290,0.0,0.0,86,0.00,,SKC,0.04,VWS V14.01,2013-11-05 05:25:00,
2013-11-04 23:30:00,30.2,26.5,30.17,WNW,290,0.0,0.0,86,0.00,,SKC,0.04,VWS V14.01,2013-11-05 05:30:00,
2013-11-04 23:35:00,30.2,26.5,30.17,WNW,290,0.0,0.0,86,0.00,,SKC,0.04,VWS V14.01,2013-11-05 05:35:00,
2013-11-04 23:40:00,30.2,26.8,30.17,WNW,290,0.0,0.0,87,0.00,,SKC,0.04,VWS V14.01,2013-11-05 05:40:00,
2013-11-04 23:46:00,30.2,26.8,30.17,WNW,290,0.0,0.0,87,0.00,,SKC,0.04,VWS V14.01,2013-11-05 05:46:00,
2013-11-04 23:51:00,30.0,26.6,30.17,WNW,290,0.0,0.0,87,0.00,,SKC,0.04,VWS V14.01,2013-11-05 05:51:00,
2013-11-04 23:56:00,30.0,26.6,30.17,WNW,290,0.0,0.0,87,0.00,,SKC,0.04,VWS V14.01,2013-11-05 05:56:00,